| time (UTC) | temp F | wind direction | speed MPH | gust MPH | rain 1hr in | rain 24hr in | rain mn in | humidity % | barometer mb |
| 20260831074849 | 55 | 340 | 0.0 | 2.0 | 0.00 | 0.04 | 0.00 | 97 | 1018.6 |
| 20260831074339 | 55 | 340 | 1.0 | 3.0 | 0.00 | 0.04 | 0.00 | 98 | 1018.6 |
| 20260831073833 | 56 | 340 | 1.0 | 3.0 | 0.00 | 0.04 | 0.00 | 97 | 1018.5 |
| 20260831073326 | 56 | 340 | 1.0 | 2.0 | 0.00 | 0.04 | 0.00 | 98 | 1018.6 |
| 20260831072816 | 56 | 340 | 1.0 | 4.0 | 0.00 | 0.04 | 0.00 | 98 | 1018.6 |
| 20260831072311 | 56 | 340 | 2.0 | 4.0 | 0.00 | 0.04 | 0.00 | 98 | 1018.7 |
| 20260831071804 | 57 | 355 | 2.0 | 4.0 | 0.00 | 0.04 | 0.00 | 98 | 1018.6 |
| 20260831071301 | 56 | 346 | 1.0 | 6.0 | 0.00 | 0.04 | 0.00 | 97 | 1018.7 |
| 20260831070757 | 56 | 323 | 1.0 | 6.0 | 0.00 | 0.04 | 0.00 | 97 | 1018.7 |
| 20260831070254 | 56 | 53 | 1.0 | 2.0 | 0.00 | 0.04 | 0.00 | 97 | 1018.7 |
| 20260831065754 | 56 | 53 | 1.0 | 2.0 | 0.00 | 0.04 | 0.00 | 97 | 1018.7 |
| 20260831065252 | 56 | 53 | 1.0 | 2.0 | 0.00 | 0.04 | 0.00 | 97 | 1018.6 |
| 20260831064750 | 56 | 53 | 0.0 | 1.0 | 0.00 | 0.04 | 0.00 | 97 | 1018.6 |
| 20260831064248 | 57 | 53 | 1.0 | 3.0 | 0.00 | 0.04 | 0.00 | 97 | 1018.2 |
| 20260831063749 | 57 | 53 | 1.0 | 3.0 | 0.00 | 0.04 | 0.00 | 97 | 1018.2 |
| 20260831063248 | 57 | 53 | 1.0 | 3.0 | 0.00 | 0.04 | 0.00 | 97 | 1018.2 |
| 20260831062750 | 57 | 53 | 1.0 | 3.0 | 0.00 | 0.04 | 0.00 | 97 | 1018.2 |
| 20260831062246 | 57 | 325 | 1.0 | 4.0 | 0.00 | 0.04 | 0.00 | 97 | 1018.2 |
| 20260831061744 | 57 | 319 | 1.0 | 4.0 | 0.00 | 0.04 | 0.00 | 97 | 1018.2 |
| 20260831061242 | 58 | 347 | 1.0 | 3.0 | 0.00 | 0.04 | 0.00 | 97 | 1018.2 |
| 20260831060740 | 58 | 348 | 1.0 | 4.0 | 0.00 | 0.04 | 0.00 | 96 | 1018.2 |
| 20260831060240 | 58 | 355 | 2.0 | 4.0 | 0.00 | 0.04 | 0.00 | 97 | 1018.2 |
| 20260831055740 | 59 | 34 | 2.0 | 4.0 | 0.00 | 0.04 | 0.00 | 97 | 1018.2 |
| 20260831055240 | 59 | 22 | 2.0 | 5.0 | 0.00 | 0.04 | 0.00 | 97 | 1018.4 |
| 20260831054958 | 59 | 0 | 2.0 | 5.0 | 0.00 | 0.04 | 0.00 | 97 | 1018.4 |
| 20260831054238 | 59 | 346 | 2.0 | 6.0 | 0.00 | 0.04 | 0.00 | 97 | 1018.2 |
| 20260831053738 | 59 | 294 | 2.0 | 7.0 | 0.00 | 0.04 | 0.00 | 97 | 1018.4 |
| 20260831053235 | 59 | 275 | 2.0 | 9.0 | 0.00 | 0.04 | 0.00 | 97 | 1018.2 |
| 20260831052734 | 59 | 277 | 2.0 | 10.0 | 0.00 | 0.04 | 0.00 | 97 | 1018.4 |
| 20260831052234 | 59 | 220 | 3.0 | 10.0 | 0.00 | 0.04 | 0.00 | 97 | 1018.4 |
| 20260831051734 | 59 | 235 | 3.0 | 10.0 | 0.00 | 0.04 | 0.00 | 97 | 1018.5 |
| 20260831051234 | 59 | 288 | 3.0 | 12.0 | 0.00 | 0.04 | 0.00 | 97 | 1018.5 |
| 20260831050734 | 59 | 323 | 3.0 | 12.0 | 0.00 | 0.04 | 0.00 | 97 | 1018.6 |
| 20260831050232 | 59 | 307 | 3.0 | 9.0 | 0.00 | 0.04 | 0.00 | 97 | 1018.6 |
| 20260831045732 | 59 | 222 | 3.0 | 8.0 | 0.00 | 0.04 | 0.00 | 97 | 1018.5 |
| 20260831045454 | 59 | 245 | 3.0 | 8.0 | 0.00 | 0.04 | 0.00 | 97 | 1018.6 |
| 20260831044732 | 60 | 269 | 3.0 | 9.0 | 0.00 | 0.04 | 0.00 | 97 | 1018.5 |
| 20260831044454 | 60 | 344 | 3.0 | 10.0 | 0.00 | 0.04 | 0.00 | 96 | 1018.6 |
| 20260831043726 | 60 | 241 | 3.0 | 10.0 | 0.00 | 0.04 | 0.00 | 96 | 1018.6 |
| 20260831043228 | 60 | 302 | 3.0 | 11.0 | 0.00 | 0.04 | 0.00 | 96 | 1018.6 |
| 20260831042725 | 60 | 281 | 3.0 | 11.0 | 0.00 | 0.04 | 0.00 | 96 | 1018.5 |
| 20260831042227 | 60 | 246 | 2.0 | 9.0 | 0.00 | 0.04 | 0.00 | 96 | 1018.5 |
| 20260831041724 | 60 | 214 | 3.0 | 9.0 | 0.00 | 0.04 | 0.00 | 96 | 1018.5 |
| 20260831041224 | 60 | 11 | 3.0 | 9.0 | 0.00 | 0.04 | 0.00 | 96 | 1018.5 |
| 20260831040724 | 60 | 298 | 3.0 | 9.0 | 0.00 | 0.04 | 0.00 | 96 | 1018.4 |
| 20260831040225 | 60 | 228 | 3.0 | 10.0 | 0.00 | 0.04 | 0.00 | 96 | 1018.4 |
| 20260831035946 | 60 | 229 | 4.0 | 10.0 | 0.00 | 0.04 | 0.04 | 97 | 1018.2 |
| 20260831035224 | 60 | 234 | 4.0 | 12.0 | 0.00 | 0.04 | 0.04 | 96 | 1018.1 |
| 20260831034724 | 60 | 281 | 4.0 | 12.0 | 0.00 | 0.04 | 0.04 | 96 | 1018.1 |
| 20260831034224 | 60 | 321 | 4.0 | 11.0 | 0.00 | 0.04 | 0.04 | 97 | 1018.0 |
| 20260831033724 | 60 | 237 | 5.0 | 11.0 | 0.00 | 0.04 | 0.04 | 97 | 1018.0 |
| 20260831033447 | 60 | 234 | 4.0 | 10.0 | 0.00 | 0.04 | 0.04 | 97 | 1018.1 |
| 20260831032728 | 60 | 236 | 4.0 | 10.0 | 0.00 | 0.04 | 0.04 | 97 | 1018.0 |
| 20260831032218 | 60 | 243 | 5.0 | 10.0 | 0.01 | 0.04 | 0.04 | 97 | 1018.1 |
| 20260831031711 | 60 | 241 | 5.0 | 10.0 | 0.01 | 0.04 | 0.04 | 97 | 1018.0 |
| 20260831031430 | 60 | 306 | 5.0 | 10.0 | 0.01 | 0.04 | 0.04 | 97 | 1018.0 |
| 20260831030655 | 60 | 236 | 4.0 | 9.0 | 0.01 | 0.04 | 0.04 | 97 | 1018.0 |
| 20260831030154 | 60 | 244 | 5.0 | 9.0 | 0.01 | 0.04 | 0.04 | 97 | 1017.9 |
| 20260831025926 | 60 | 246 | 4.0 | 10.0 | 0.01 | 0.04 | 0.04 | 97 | 1018.0 |
| 20260831025413 | 60 | 263 | 3.0 | 10.0 | 0.01 | 0.04 | 0.04 | 97 | 1018.2 |
| 20260831024654 | 60 | 270 | 3.0 | 7.0 | 0.01 | 0.04 | 0.04 | 97 | 1018.1 |
| 20260831024152 | 60 | 245 | 3.0 | 7.0 | 0.01 | 0.04 | 0.04 | 97 | 1018.2 |
| 20260831023913 | 60 | 240 | 2.0 | 5.0 | 0.01 | 0.04 | 0.04 | 97 | 1018.4 |
| 20260831023152 | 60 | 259 | 2.0 | 5.0 | 0.01 | 0.04 | 0.04 | 97 | 1018.5 |
| 20260831022653 | 60 | 286 | 2.0 | 7.0 | 0.01 | 0.04 | 0.04 | 97 | 1018.2 |
| 20260831022153 | 60 | 243 | 3.0 | 7.0 | 0.00 | 0.03 | 0.03 | 97 | 1018.1 |
| 20260831021652 | 60 | 236 | 3.0 | 8.0 | 0.00 | 0.03 | 0.03 | 97 | 1018.1 |
| 20260831021152 | 60 | 288 | 3.0 | 9.0 | 0.00 | 0.03 | 0.03 | 97 | 1018.0 |
| 20260831020650 | 60 | 284 | 3.0 | 11.0 | 0.00 | 0.03 | 0.03 | 96 | 1018.0 |
| 20260831020148 | 60 | 233 | 4.0 | 11.0 | 0.00 | 0.03 | 0.03 | 96 | 1017.9 |
| 20260831015648 | 60 | 254 | 4.0 | 8.0 | 0.00 | 0.03 | 0.03 | 96 | 1017.7 |
| 20260831015148 | 61 | 243 | 4.0 | 9.0 | 0.00 | 0.03 | 0.03 | 96 | 1017.8 |
| 20260831014641 | 61 | 231 | 4.0 | 9.0 | 0.00 | 0.03 | 0.03 | 96 | 1017.8 |
| 20260831014142 | 61 | 224 | 4.0 | 11.0 | 0.01 | 0.03 | 0.03 | 96 | 1017.9 |
| 20260831013642 | 61 | 254 | 4.0 | 11.0 | 0.01 | 0.03 | 0.03 | 96 | 1017.8 |
| 20260831013409 | 61 | 239 | 5.0 | 12.0 | 0.01 | 0.03 | 0.03 | 96 | 1017.8 |
| 20260831012640 | 61 | 226 | 5.0 | 12.0 | 0.01 | 0.03 | 0.03 | 96 | 1017.7 |
| 20260831012359 | 60 | 244 | 4.0 | 8.0 | 0.01 | 0.03 | 0.03 | 96 | 1017.6 |
| 20260831011638 | 60 | 274 | 4.0 | 8.0 | 0.02 | 0.03 | 0.03 | 96 | 1017.5 |
| 20260831011138 | 60 | 205 | 4.0 | 8.0 | 0.02 | 0.03 | 0.03 | 96 | 1017.6 |
| 20260831010638 | 60 | 236 | 4.0 | 9.0 | 0.03 | 0.03 | 0.03 | 96 | 1017.5 |
| 20260831010138 | 60 | 239 | 5.0 | 10.0 | 0.03 | 0.03 | 0.03 | 96 | 1017.3 |
| 20260831005638 | 60 | 242 | 5.0 | 11.0 | 0.03 | 0.03 | 0.03 | 96 | 1017.1 |
| 20260831005138 | 60 | 254 | 5.0 | 11.0 | 0.03 | 0.03 | 0.03 | 96 | 1017.1 |
| 20260831004856 | 61 | 233 | 4.0 | 10.0 | 0.03 | 0.03 | 0.03 | 96 | 1017.1 |
| 20260831004136 | 61 | 267 | 4.0 | 10.0 | 0.02 | 0.02 | 0.02 | 96 | 1017.3 |
| 20260831003637 | 61 | 250 | 4.0 | 9.0 | 0.02 | 0.02 | 0.02 | 96 | 1017.3 |
| 20260831003131 | 61 | 261 | 4.0 | 9.0 | 0.02 | 0.02 | 0.02 | 96 | 1017.2 |
| 20260831002628 | 61 | 243 | 3.0 | 7.0 | 0.02 | 0.02 | 0.02 | 95 | 1017.2 |
| 20260831001855 | 61 | 251 | 4.0 | 8.0 | 0.01 | 0.01 | 0.01 | 94 | 1017.1 |
| 20260831001128 | 61 | 239 | 4.0 | 9.0 | 0.01 | 0.01 | 0.01 | 94 | 1016.9 |
| 20260831000847 | 61 | 290 | 4.0 | 9.0 | 0.00 | 0.00 | 0.01 | 94 | 1016.9 |
| 20260831000128 | 61 | 250 | 4.0 | 9.0 | 0.00 | 0.00 | 0.00 | 93 | 1016.9 |
| 20260830235627 | 61 | 241 | 5.0 | 10.0 | 0.00 | 0.00 | 0.00 | 93 | 1016.7 |
| 20260830235346 | 62 | 241 | 6.0 | 12.0 | 0.00 | 0.00 | 0.00 | 92 | 1016.6 |
| 20260830234626 | 62 | 250 | 5.0 | 13.0 | 0.00 | 0.00 | 0.00 | 92 | 1016.7 |
| 20260830234125 | 62 | 277 | 5.0 | 13.0 | 0.00 | 0.00 | 0.00 | 91 | 1016.6 |
| 20260830233627 | 62 | 242 | 5.0 | 11.0 | 0.00 | 0.00 | 0.00 | 91 | 1016.7 |
| 20260830233126 | 62 | 253 | 4.0 | 11.0 | 0.00 | 0.00 | 0.00 | 91 | 1016.6 |
| 20260830232626 | 62 | 250 | 3.0 | 5.0 | 0.00 | 0.00 | 0.00 | 91 | 1016.6 |
| 20260830232125 | 62 | 246 | 3.0 | 8.0 | 0.00 | 0.00 | 0.00 | 91 | 1016.5 |
| 20260830231626 | 62 | 257 | 3.0 | 8.0 | 0.00 | 0.00 | 0.00 | 91 | 1016.4 |
| 20260830231124 | 63 | 247 | 4.0 | 10.0 | 0.00 | 0.00 | 0.00 | 90 | 1016.4 |
| 20260830230124 | 63 | 238 | 5.0 | 11.0 | 0.00 | 0.00 | 0.00 | 88 | 1016.4 |
| 20260830225624 | 64 | 244 | 5.0 | 11.0 | 0.00 | 0.00 | 0.00 | 88 | 1016.4 |
| 20260830225124 | 64 | 256 | 4.0 | 9.0 | 0.00 | 0.00 | 0.00 | 89 | 1016.5 |
| 20260830224624 | 64 | 236 | 3.0 | 9.0 | 0.00 | 0.00 | 0.00 | 89 | 1016.4 |
| 20260830224124 | 64 | 247 | 3.0 | 8.0 | 0.00 | 0.00 | 0.00 | 89 | 1016.2 |
| 20260830223624 | 64 | 230 | 3.0 | 8.0 | 0.00 | 0.00 | 0.00 | 89 | 1016.4 |
| 20260830223122 | 64 | 253 | 3.0 | 7.0 | 0.00 | 0.00 | 0.00 | 89 | 1016.2 |
| 20260830222622 | 64 | 279 | 2.0 | 5.0 | 0.00 | 0.00 | 0.00 | 89 | 1016.4 |
| 20260830222122 | 64 | 264 | 2.0 | 6.0 | 0.00 | 0.00 | 0.00 | 89 | 1016.4 |
| 20260830221616 | 64 | 273 | 3.0 | 9.0 | 0.00 | 0.00 | 0.00 | 89 | 1016.4 |
| 20260830221116 | 65 | 234 | 4.0 | 9.0 | 0.00 | 0.00 | 0.00 | 88 | 1016.2 |
| 20260830220616 | 65 | 265 | 4.0 | 10.0 | 0.00 | 0.00 | 0.00 | 87 | 1016.4 |
| 20260830220115 | 65 | 252 | 4.0 | 10.0 | 0.00 | 0.00 | 0.00 | 88 | 1016.2 |
| 20260830215616 | 65 | 229 | 3.0 | 8.0 | 0.00 | 0.00 | 0.00 | 87 | 1016.2 |
| 20260830215115 | 65 | 300 | 4.0 | 9.0 | 0.00 | 0.00 | 0.00 | 87 | 1016.4 |
| 20260830214615 | 65 | 242 | 4.0 | 9.0 | 0.00 | 0.00 | 0.00 | 88 | 1016.2 |
| 20260830214116 | 64 | 263 | 3.0 | 10.0 | 0.00 | 0.00 | 0.00 | 88 | 1016.1 |
| 20260830213615 | 64 | 254 | 4.0 | 10.0 | 0.00 | 0.00 | 0.00 | 88 | 1016.0 |
| 20260830213112 | 64 | 243 | 3.0 | 10.0 | 0.00 | 0.00 | 0.00 | 89 | 1016.0 |
| 20260830212611 | 64 | 297 | 3.0 | 8.0 | 0.00 | 0.00 | 0.00 | 89 | 1015.9 |
| 20260830212111 | 64 | 299 | 2.0 | 7.0 | 0.00 | 0.00 | 0.00 | 89 | 1015.9 |
| 20260830211611 | 63 | 263 | 2.0 | 7.0 | 0.00 | 0.00 | 0.00 | 90 | 1016.1 |
| 20260830211332 | 63 | 290 | 3.0 | 9.0 | 0.00 | 0.00 | 0.00 | 90 | 1016.0 |
| 20260830210611 | 64 | 280 | 4.0 | 11.0 | 0.00 | 0.00 | 0.00 | 89 | 1016.0 |
| 20260830210112 | 64 | 243 | 5.0 | 11.0 | 0.00 | 0.00 | 0.00 | 88 | 1016.1 |
| 20260830205612 | 65 | 291 | 5.0 | 11.0 | 0.00 | 0.00 | 0.00 | 86 | 1016.1 |
| 20260830205112 | 65 | 355 | 8.0 | 25.0 | 0.00 | 0.00 | 0.00 | 83 | 1016.1 |
| 20260830204612 | 66 | 290 | 8.0 | 25.0 | 0.00 | 0.00 | 0.00 | 80 | 1016.0 |
| 20260830204112 | 67 | 242 | 5.0 | 19.0 | 0.00 | 0.00 | 0.00 | 81 | 1016.0 |
| 20260830203611 | 67 | 249 | 4.0 | 11.0 | 0.00 | 0.00 | 0.00 | 83 | 1015.9 |
| 20260830203112 | 67 | 266 | 4.0 | 9.0 | 0.00 | 0.00 | 0.00 | 80 | 1015.8 |
| 20260830202612 | 68 | 233 | 4.0 | 7.0 | 0.00 | 0.00 | 0.00 | 78 | 1015.7 |
| 20260830202112 | 68 | 252 | 4.0 | 7.0 | 0.00 | 0.00 | 0.00 | 80 | 1015.7 |
| 20260830201612 | 68 | 225 | 5.0 | 10.0 | 0.00 | 0.00 | 0.00 | 79 | 1015.7 |
| 20260830201111 | 68 | 244 | 5.0 | 11.0 | 0.00 | 0.00 | 0.00 | 77 | 1015.7 |
| 20260830200830 | 69 | 233 | 6.0 | 12.0 | 0.00 | 0.00 | 0.00 | 76 | 1015.8 |
| 20260830200109 | 69 | 237 | 6.0 | 12.0 | 0.00 | 0.00 | 0.00 | 75 | 1015.8 |
| 20260830195612 | 70 | 223 | 7.0 | 16.0 | 0.00 | 0.00 | 0.00 | 72 | 1015.7 |
| 20260830195111 | 70 | 239 | 7.0 | 16.0 | 0.00 | 0.00 | 0.00 | 72 | 1015.7 |
| 20260830194610 | 70 | 229 | 7.0 | 15.0 | 0.00 | 0.00 | 0.00 | 72 | 1015.8 |
| 20260830194329 | 71 | 250 | 7.0 | 15.0 | 0.00 | 0.00 | 0.00 | 70 | 1015.9 |
| 20260830193607 | 71 | 263 | 6.0 | 14.0 | 0.00 | 0.00 | 0.00 | 70 | 1015.8 |
| 20260830193108 | 71 | 227 | 4.0 | 14.0 | 0.00 | 0.00 | 0.00 | 72 | 1015.9 |
| 20260830192607 | 72 | 264 | 4.0 | 12.0 | 0.00 | 0.00 | 0.00 | 71 | 1016.0 |
| 20260830192338 | 72 | 225 | 4.0 | 8.0 | 0.00 | 0.00 | 0.00 | 74 | 1016.2 |
| 20260830191058 | 71 | 249 | 3.0 | 8.0 | 0.00 | 0.00 | 0.00 | 71 | 1016.4 |
| 20260830190557 | 71 | 234 | 4.0 | 8.0 | 0.00 | 0.00 | 0.00 | 76 | 1016.4 |
| 20260830190055 | 71 | 224 | 4.0 | 9.0 | 0.00 | 0.00 | 0.00 | 72 | 1016.5 |
| 20260830185553 | 70 | 257 | 3.0 | 9.0 | 0.00 | 0.00 | 0.00 | 75 | 1016.6 |
| 20260830185314 | 69 | 281 | 3.0 | 9.0 | 0.00 | 0.00 | 0.00 | 75 | 1016.6 |
| 20260830184051 | 69 | 250 | 3.0 | 8.0 | 0.00 | 0.00 | 0.00 | 75 | 1016.8 |
| 20260830183552 | 68 | 231 | 3.0 | 8.0 | 0.00 | 0.00 | 0.00 | 75 | 1016.8 |
| 20260830183051 | 68 | 337 | 3.0 | 7.0 | 0.00 | 0.00 | 0.00 | 79 | 1016.7 |
| 20260830182551 | 68 | 245 | 4.0 | 7.0 | 0.00 | 0.00 | 0.00 | 77 | 1016.9 |
| 20260830182322 | 68 | 237 | 3.0 | 8.0 | 0.00 | 0.00 | 0.00 | 77 | 1016.9 |
| 20260830181557 | 68 | 234 | 3.0 | 8.0 | 0.00 | 0.00 | 0.00 | 75 | 1016.8 |
| 20260830181048 | 68 | 232 | 4.0 | 9.0 | 0.00 | 0.00 | 0.00 | 77 | 1017.0 |
| 20260830180546 | 68 | 263 | 5.0 | 10.0 | 0.00 | 0.00 | 0.00 | 76 | 1016.9 |
| 20260830180046 | 68 | 249 | 5.0 | 11.0 | 0.00 | 0.00 | 0.00 | 75 | 1017.0 |
| 20260830175536 | 68 | 246 | 5.0 | 11.0 | 0.00 | 0.00 | 0.00 | 75 | 1017.0 |
| 20260830175029 | 69 | 233 | 4.0 | 9.0 | 0.00 | 0.00 | 0.00 | 78 | 1017.0 |
| 20260830174527 | 68 | 240 | 4.0 | 9.0 | 0.00 | 0.00 | 0.00 | 75 | 1017.1 |
| 20260830174027 | 68 | 240 | 3.0 | 8.0 | 0.00 | 0.00 | 0.00 | 76 | 1017.1 |
| 20260830173527 | 68 | 251 | 2.0 | 5.0 | 0.00 | 0.00 | 0.00 | 78 | 1017.2 |
| 20260830173027 | 68 | 228 | 3.0 | 5.0 | 0.00 | 0.00 | 0.00 | 80 | 1017.2 |
| 20260830172528 | 67 | 254 | 2.0 | 5.0 | 0.00 | 0.00 | 0.00 | 80 | 1017.3 |
| 20260830172027 | 67 | 242 | 2.0 | 7.0 | 0.00 | 0.00 | 0.00 | 82 | 1017.4 |
| 20260830171527 | 67 | 229 | 2.0 | 7.0 | 0.00 | 0.00 | 0.00 | 81 | 1017.4 |
| 20260830171028 | 66 | 248 | 2.0 | 5.0 | 0.00 | 0.00 | 0.00 | 81 | 1017.4 |
| 20260830170528 | 66 | 257 | 2.0 | 4.0 | 0.00 | 0.00 | 0.00 | 83 | 1017.4 |
| 20260830170027 | 66 | 257 | 2.0 | 4.0 | 0.00 | 0.00 | 0.00 | 83 | 1017.4 |
| 20260830165527 | 66 | 245 | 3.0 | 7.0 | 0.00 | 0.00 | 0.00 | 84 | 1017.5 |
| 20260830165248 | 65 | 240 | 3.0 | 7.0 | 0.00 | 0.00 | 0.00 | 83 | 1017.5 |
| 20260830164527 | 65 | 239 | 4.0 | 9.0 | 0.00 | 0.00 | 0.00 | 82 | 1017.5 |
| 20260830164027 | 65 | 234 | 4.0 | 9.0 | 0.00 | 0.00 | 0.00 | 83 | 1017.6 |
| 20260830163528 | 65 | 258 | 5.0 | 8.0 | 0.00 | 0.00 | 0.00 | 83 | 1017.6 |
| 20260830163027 | 65 | 265 | 4.0 | 8.0 | 0.00 | 0.00 | 0.00 | 85 | 1017.7 |
| 20260830162528 | 64 | 252 | 3.0 | 8.0 | 0.00 | 0.00 | 0.00 | 87 | 1017.9 |
| 20260830161525 | 64 | 251 | 3.0 | 5.0 | 0.00 | 0.00 | 0.00 | 87 | 1018.0 |
| 20260830161023 | 64 | 248 | 2.0 | 5.0 | 0.00 | 0.00 | 0.00 | 87 | 1018.0 |
| 20260830160523 | 64 | 239 | 2.0 | 3.0 | 0.00 | 0.00 | 0.00 | 89 | 1018.0 |
| 20260830160023 | 63 | 237 | 1.0 | 3.0 | 0.00 | 0.00 | 0.00 | 89 | 1018.0 |
| 20260830155522 | 63 | 267 | 1.0 | 4.0 | 0.00 | 0.00 | 0.00 | 87 | 1018.0 |
| 20260830155019 | 63 | 240 | 2.0 | 7.0 | 0.00 | 0.00 | 0.00 | 88 | 1018.2 |
| 20260830154519 | 63 | 313 | 2.0 | 7.0 | 0.00 | 0.00 | 0.00 | 89 | 1018.6 |
| 20260830154020 | 63 | 242 | 3.0 | 5.0 | 0.00 | 0.00 | 0.00 | 87 | 1018.6 |
| 20260830153517 | 63 | 242 | 3.0 | 6.0 | 0.00 | 0.00 | 0.00 | 88 | 1018.6 |
| 20260830153018 | 63 | 240 | 4.0 | 8.0 | 0.00 | 0.00 | 0.00 | 88 | 1018.5 |
| 20260830152744 | 63 | 223 | 4.0 | 8.0 | 0.00 | 0.00 | 0.00 | 87 | 1018.5 |
| 20260830152234 | 63 | 227 | 4.0 | 6.0 | 0.00 | 0.00 | 0.00 | 88 | 1018.5 |
| 20260830151511 | 62 | 240 | 3.0 | 6.0 | 0.00 | 0.00 | 0.00 | 86 | 1018.2 |
| 20260830151011 | 62 | 244 | 2.0 | 6.0 | 0.00 | 0.00 | 0.00 | 86 | 1018.1 |
| 20260830150511 | 62 | 245 | 2.0 | 5.0 | 0.00 | 0.00 | 0.00 | 85 | 1018.0 |
| 20260830150011 | 62 | 284 | 2.0 | 4.0 | 0.00 | 0.00 | 0.00 | 88 | 1018.2 |
| 20260830145511 | 62 | 248 | 2.0 | 10.0 | 0.00 | 0.00 | 0.00 | 87 | 1018.5 |
| 20260830145011 | 62 | 238 | 4.0 | 10.0 | 0.00 | 0.00 | 0.00 | 87 | 1018.6 |
| 20260830144511 | 62 | 261 | 4.0 | 9.0 | 0.00 | 0.00 | 0.00 | 88 | 1018.7 |
| 20260830144011 | 62 | 227 | 5.0 | 10.0 | 0.00 | 0.00 | 0.00 | 88 | 1018.7 |
| 20260830143511 | 61 | 230 | 5.0 | 10.0 | 0.00 | 0.00 | 0.00 | 88 | 1018.7 |
| 20260830143011 | 61 | 223 | 4.0 | 9.0 | 0.00 | 0.00 | 0.00 | 90 | 1018.7 |
| 20260830142511 | 61 | 229 | 3.0 | 7.0 | 0.00 | 0.00 | 0.00 | 90 | 1018.4 |
| 20260830142009 | 61 | 243 | 2.0 | 5.0 | 0.00 | 0.00 | 0.00 | 88 | 1018.1 |
| 20260830141509 | 61 | 248 | 2.0 | 5.0 | 0.00 | 0.00 | 0.00 | 86 | 1018.0 |
| 20260830141010 | 62 | 266 | 2.0 | 8.0 | 0.00 | 0.00 | 0.00 | 86 | 1017.8 |
| 20260830140502 | 62 | 239 | 3.0 | 9.0 | 0.00 | 0.00 | 0.00 | 84 | 1017.8 |
| 20260830135957 | 62 | 221 | 4.0 | 10.0 | 0.00 | 0.00 | 0.00 | 84 | 1018.2 |
| 20260830135450 | 62 | 243 | 4.0 | 10.0 | 0.00 | 0.00 | 0.00 | 82 | 1018.5 |
| 20260830134941 | 63 | 246 | 4.0 | 9.0 | 0.00 | 0.00 | 0.00 | 82 | 1018.5 |
| 20260830134435 | 63 | 227 | 4.0 | 9.0 | 0.00 | 0.00 | 0.00 | 80 | 1018.5 |
| 20260830134148 | 63 | 221 | 3.0 | 9.0 | 0.00 | 0.00 | 0.00 | 82 | 1018.6 |
| 20260830133425 | 63 | 288 | 3.0 | 9.0 | 0.00 | 0.00 | 0.00 | 84 | 1018.6 |
| 20260830132923 | 62 | 217 | 2.0 | 6.0 | 0.00 | 0.00 | 0.00 | 82 | 1018.5 |
| 20260830132422 | 62 | 269 | 2.0 | 7.0 | 0.00 | 0.00 | 0.00 | 84 | 1018.5 |
| 20260830131923 | 62 | 278 | 2.0 | 7.0 | 0.00 | 0.00 | 0.00 | 85 | 1018.5 |
| 20260830131420 | 62 | 262 | 3.0 | 7.0 | 0.00 | 0.00 | 0.00 | 85 | 1018.6 |
| 20260830130919 | 61 | 240 | 3.0 | 9.0 | 0.00 | 0.00 | 0.00 | 85 | 1018.6 |
| 20260830130647 | 61 | 248 | 4.0 | 9.0 | 0.00 | 0.00 | 0.00 | 84 | 1018.5 |
| 20260830125917 | 61 | 248 | 4.0 | 8.0 | 0.00 | 0.00 | 0.00 | 85 | 1018.5 |
| 20260830125414 | 61 | 271 | 4.0 | 9.0 | 0.00 | 0.00 | 0.00 | 85 | 1018.5 |
| 20260830124914 | 61 | 244 | 4.0 | 9.0 | 0.00 | 0.00 | 0.00 | 86 | 1018.4 |
| 20260830124415 | 61 | 255 | 3.0 | 8.0 | 0.00 | 0.00 | 0.00 | 84 | 1018.4 |
| 20260830123914 | 61 | 236 | 3.0 | 6.0 | 0.00 | 0.00 | 0.00 | 84 | 1018.2 |
| 20260830123413 | 61 | 250 | 3.0 | 7.0 | 0.00 | 0.00 | 0.00 | 86 | 1018.5 |
| 20260830122911 | 61 | 235 | 2.0 | 7.0 | 0.00 | 0.00 | 0.00 | 86 | 1018.5 |
| 20260830122412 | 61 | 245 | 2.0 | 8.0 | 0.00 | 0.00 | 0.00 | 86 | 1018.5 |
| 20260830121405 | 61 | 245 | 4.0 | 9.0 | 0.00 | 0.00 | 0.00 | 86 | 1018.6 |
| 20260830120903 | 61 | 242 | 3.0 | 9.0 | 0.00 | 0.00 | 0.00 | 85 | 1018.6 |
| 20260830120402 | 61 | 244 | 3.0 | 6.0 | 0.00 | 0.00 | 0.00 | 84 | 1018.7 |
| 20260830115903 | 61 | 242 | 3.0 | 5.0 | 0.00 | 0.00 | 0.00 | 83 | 1018.5 |
| 20260830115403 | 61 | 245 | 3.0 | 7.0 | 0.00 | 0.00 | 0.00 | 84 | 1018.5 |
| 20260830114901 | 61 | 246 | 3.0 | 8.0 | 0.00 | 0.00 | 0.00 | 84 | 1018.5 |
| 20260830114116 | 60 | 277 | 2.0 | 6.0 | 0.00 | 0.00 | 0.00 | 87 | 1018.6 |
| 20260830113401 | 60 | 243 | 2.0 | 6.0 | 0.00 | 0.00 | 0.00 | 87 | 1018.7 |
| 20260830112900 | 59 | 224 | 2.0 | 4.0 | 0.00 | 0.00 | 0.00 | 88 | 1018.7 |
| 20260830112401 | 59 | 239 | 2.0 | 4.0 | 0.00 | 0.00 | 0.00 | 87 | 1018.7 |
| 20260830111901 | 59 | 240 | 2.0 | 4.0 | 0.00 | 0.00 | 0.00 | 87 | 1018.7 |
| 20260830111401 | 59 | 232 | 2.0 | 4.0 | 0.00 | 0.00 | 0.00 | 87 | 1018.6 |
| 20260830110900 | 59 | 265 | 2.0 | 4.0 | 0.00 | 0.00 | 0.00 | 87 | 1018.5 |
| 20260830110400 | 59 | 246 | 2.0 | 7.0 | 0.00 | 0.00 | 0.00 | 87 | 1018.6 |
| 20260830105900 | 59 | 247 | 3.0 | 7.0 | 0.00 | 0.00 | 0.00 | 85 | 1018.6 |
| 20260830105401 | 60 | 251 | 3.0 | 6.0 | 0.00 | 0.00 | 0.00 | 85 | 1018.6 |
| 20260830104901 | 60 | 258 | 2.0 | 7.0 | 0.00 | 0.00 | 0.00 | 84 | 1018.6 |
| 20260830104401 | 60 | 254 | 2.0 | 7.0 | 0.00 | 0.00 | 0.00 | 85 | 1018.7 |
| 20260830103900 | 59 | 254 | 2.0 | 7.0 | 0.00 | 0.00 | 0.00 | 85 | 1018.6 |
| 20260830103401 | 60 | 247 | 2.0 | 7.0 | 0.00 | 0.00 | 0.00 | 84 | 1018.6 |
| 20260830102900 | 60 | 286 | 2.0 | 7.0 | 0.00 | 0.00 | 0.00 | 84 | 1018.7 |
| 20260830102401 | 60 | 253 | 2.0 | 6.0 | 0.00 | 0.00 | 0.00 | 84 | 1018.6 |
| 20260830101900 | 60 | 231 | 2.0 | 6.0 | 0.00 | 0.00 | 0.00 | 83 | 1018.6 |
| 20260830101400 | 60 | 248 | 2.0 | 5.0 | 0.00 | 0.00 | 0.00 | 83 | 1018.7 |
| 20260830100900 | 60 | 207 | 1.0 | 5.0 | 0.00 | 0.00 | 0.00 | 83 | 1018.8 |
| 20260830100401 | 59 | 247 | 1.0 | 4.0 | 0.00 | 0.00 | 0.00 | 84 | 1018.7 |
| 20260830095901 | 59 | 244 | 1.0 | 4.0 | 0.00 | 0.00 | 0.00 | 83 | 1018.7 |
| 20260830095401 | 59 | 269 | 2.0 | 8.0 | 0.00 | 0.00 | 0.00 | 83 | 1018.8 |
| 20260830094901 | 60 | 278 | 3.0 | 8.0 | 0.00 | 0.00 | 0.00 | 82 | 1018.8 |
| 20260830094401 | 60 | 223 | 3.0 | 7.0 | 0.00 | 0.00 | 0.00 | 83 | 1018.8 |
| 20260830093901 | 60 | 246 | 3.0 | 7.0 | 0.00 | 0.00 | 0.00 | 82 | 1018.8 |
| 20260830093358 | 60 | 261 | 4.0 | 9.0 | 0.00 | 0.00 | 0.00 | 81 | 1018.7 |
| 20260830092859 | 60 | 252 | 4.0 | 9.0 | 0.00 | 0.00 | 0.00 | 82 | 1018.7 |
| 20260830092353 | 60 | 257 | 4.0 | 8.0 | 0.00 | 0.00 | 0.00 | 81 | 1018.7 |
| 20260830091847 | 60 | 236 | 4.0 | 9.0 | 0.00 | 0.00 | 0.00 | 80 | 1018.7 |
| 20260830091337 | 60 | 234 | 5.0 | 9.0 | 0.00 | 0.00 | 0.00 | 80 | 1018.6 |
| 20260830090831 | 60 | 237 | 4.0 | 9.0 | 0.00 | 0.00 | 0.00 | 80 | 1018.8 |
| 20260830090326 | 61 | 243 | 4.0 | 9.0 | 0.00 | 0.00 | 0.00 | 80 | 1018.8 |
| 20260830085815 | 60 | 240 | 4.0 | 12.0 | 0.00 | 0.00 | 0.00 | 79 | 1018.7 |
| 20260830085309 | 60 | 239 | 5.0 | 12.0 | 0.00 | 0.00 | 0.00 | 80 | 1018.8 |
| 20260830084802 | 60 | 230 | 5.0 | 10.0 | 0.00 | 0.00 | 0.00 | 80 | 1018.8 |
| 20260830084252 | 60 | 249 | 5.0 | 10.0 | 0.00 | 0.00 | 0.00 | 80 | 1018.8 |
| 20260830083745 | 60 | 248 | 5.0 | 13.0 | 0.00 | 0.00 | 0.00 | 81 | 1018.8 |
| 20260830083239 | 60 | 246 | 4.0 | 13.0 | 0.00 | 0.00 | 0.00 | 81 | 1018.8 |
| 20260830082728 | 59 | 250 | 3.0 | 8.0 | 0.00 | 0.00 | 0.00 | 82 | 1018.8 |
| 20260830082221 | 59 | 265 | 3.0 | 8.0 | 0.00 | 0.00 | 0.00 | 82 | 1018.7 |
| 20260830081715 | 59 | 257 | 3.0 | 8.0 | 0.00 | 0.00 | 0.00 | 84 | 1018.7 |
| 20260830081422 | 59 | 227 | 2.0 | 6.0 | 0.00 | 0.00 | 0.00 | 85 | 1018.7 |
| 20260830080657 | 58 | 289 | 3.0 | 8.0 | 0.00 | 0.00 | 0.00 | 86 | 1018.7 |
| 20260830080151 | 58 | 302 | 3.0 | 8.0 | 0.00 | 0.00 | 0.00 | 86 | 1018.7 |
| 20260830075641 | 58 | 279 | 2.0 | 6.0 | 0.00 | 0.00 | 0.00 | 86 | 1018.7 |